,,,PA_Meas_PMT16A,,PR_Meas_QMR101_102,,RH_Meas_QMH101,,SR_Meas_QMS101,,TA_Meas_QMH101,,GenWind,,GenWind,
date,time,status,PA,status,PR,status,RH,status,SR,status,TA,status,DirAvg,status,SpdAvg,
2008-05-01, 00:00:04,VALID,1003.14,VALID,0,VALID,94.56,VALID,0,VALID,24.7001,VALID,60,VALID,0,
2008-05-01, 00:01:04,VALID,1003.08,VALID,0,VALID,94.5829,VALID,0,VALID,24.6593,VALID,60,VALID,0,
2008-05-01, 00:02:04,VALID,1003.08,VALID,0,VALID,94.6439,VALID,0,VALID,24.6398,VALID,60,VALID,0,
2008-05-01, 00:03:04,VALID,1003.08,VALID,0,VALID,94.6363,VALID,0,VALID,24.6417,VALID,60,VALID,0,
2008-05-01, 00:04:04,VALID,1003.08,VALID,0,VALID,94.6134,VALID,0,VALID,24.6204,VALID,60,VALID,0,
2008-05-01, 00:05:04,VALID,1003.08,VALID,0,VALID,94.7354,VALID,0,VALID,24.6009,VALID,60,VALID,0,
2008-05-01, 00:06:04,VALID,1003.11,VALID,0,VALID,94.7888,VALID,0,VALID,24.5814,VALID,60,VALID,0,
2008-05-01, 00:07:04,VALID,1003.08,VALID,0,VALID,94.827,VALID,0,VALID,24.5814,VALID,60,VALID,0,
2008-05-01, 00:08:04,VALID,1003.06,VALID,0,VALID,94.8422,VALID,0,VALID,24.562,VALID,60,VALID,0,
2008-05-01, 00:09:04,VALID,1003.05,VALID,0,VALID,94.949,VALID,0,VALID,24.5814,VALID,60,VALID,0,
2008-05-01, 00:10:04,VALID,1003.06,VALID,0,VALID,94.888,VALID,0,VALID,24.562,VALID,60,VALID,0,
2008-05-01, 00:11:04,VALID,1003.06,VALID,0,VALID,94.9567,VALID,0,VALID,24.562,VALID,60,VALID,0,
2008-05-01, 00:12:04,VALID,1003.03,VALID,0,VALID,95.0558,VALID,0,VALID,24.5814,VALID,60,VALID,0.0496094,
2008-05-01, 00:13:04,VALID,1002.99,VALID,0,VALID,95.0482,VALID,0,VALID,24.562,VALID,59,VALID,0.219531,
2008-05-01, 00:14:04,VALID,1002.97,VALID,0,VALID,95.1398,VALID,0,VALID,24.562,VALID,59,VALID,0.275391,
2008-05-01, 00:15:04,VALID,1002.94,VALID,0,VALID,95.2084,VALID,0,VALID,24.6028,VALID,59,VALID,0.269922,
2008-05-01, 00:16:04,VALID,1002.93,VALID,0,VALID,95.033,VALID,0,VALID,24.562,VALID,59,VALID,0.228125,
2008-05-01, 00:17:04,VALID,1002.9,VALID,0,VALID,95.0635,VALID,0,VALID,24.5638,VALID,59,VALID,0,
2008-05-01, 00:18:04,VALID,1002.9,VALID,0,VALID,95.0253,VALID,0,VALID,24.5425,VALID,59,VALID,0.358984,
2008-05-01, 00:19:04,VALID,1002.88,VALID,0,VALID,95.1779,VALID,0,VALID,24.5833,VALID,57,VALID,0.405469,
2008-05-01, 00:20:04,VALID,1002.9,VALID,0,VALID,95.2237,VALID,0,VALID,24.5814,VALID,57,VALID,0,
2008-05-01, 00:21:04,VALID,1002.88,VALID,0,VALID,95.1932,VALID,0,VALID,24.6009,VALID,57,VALID,0.425391,
2008-05-01, 00:22:04,VALID,1002.9,VALID,0,VALID,95.1779,VALID,0,VALID,24.5814,VALID,57,VALID,0.260156,
2008-05-01, 00:23:04,VALID,1002.9,VALID,0,VALID,95.2923,VALID,0,VALID,24.6204,VALID,48,VALID,0.489844,
2008-05-01, 00:24:04,VALID,1002.88,VALID,0,VALID,95.2923,VALID,0,VALID,24.6612,VALID,57,VALID,0.359766,
2008-05-01, 00:25:04,VALID,1002.85,VALID,0,VALID,95.3076,VALID,0,VALID,24.6593,VALID,57,VALID,0.275781,
2008-05-01, 00:26:04,VALID,1002.83,VALID,0,VALID,95.2847,VALID,0,VALID,24.6788,VALID,57,VALID,0.135156,
2008-05-01, 00:27:04,VALID,1002.83,VALID,0,VALID,95.3305,VALID,0,VALID,24.7196,VALID,57,VALID,0.476172,
2008-05-01, 00:28:04,VALID,1002.83,VALID,0,VALID,95.3534,VALID,0,VALID,24.7177,VALID,57,VALID,0.399219,
2008-05-01, 00:29:04,VALID,1002.8,VALID,0,VALID,95.2313,VALID,0,VALID,24.7177,VALID,57,VALID,0.220703,
2008-05-01, 00:30:04,VALID,1002.78,VALID,0,VALID,95.3,VALID,0,VALID,24.7567,VALID,58,VALID,0.623438,
2008-05-01, 00:31:04,VALID,1002.79,VALID,0,VALID,95.2389,VALID,0,VALID,24.7761,VALID,57,VALID,0.380469,
2008-05-01, 00:32:04,VALID,1002.77,VALID,0,VALID,95.1932,VALID,0,VALID,24.778,VALID,52,VALID,0.456641,
2008-05-01, 00:33:04,VALID,1002.78,VALID,0,VALID,95.1093,VALID,0,VALID,24.7761,VALID,52,VALID,0.387891,
2008-05-01, 00:34:04,VALID,1002.8,VALID,0,VALID,95.1245,VALID,0,VALID,24.7761,VALID,52,VALID,0.521094,
2008-05-01, 00:35:04,VALID,1002.76,VALID,0,VALID,95.1169,VALID,0,VALID,24.817,VALID,50,VALID,0.252734,
2008-05-01, 00:36:04,VALID,1002.76,VALID,0,VALID,95.033,VALID,0,VALID,24.778,VALID,50,VALID,0,
2008-05-01, 00:37:04,VALID,1002.69,VALID,0,VALID,95.0101,VALID,0,VALID,24.778,VALID,77,VALID,0.423047,
2008-05-01, 00:38:04,VALID,1002.67,VALID,0,VALID,95.0482,VALID,0,VALID,24.7761,VALID,77,VALID,0.257422,
2008-05-01, 00:39:04,VALID,1002.65,VALID,0,VALID,94.9948,VALID,0,VALID,24.7567,VALID,77,VALID,0.139062,
2008-05-01, 00:40:04,VALID,1002.59,VALID,0,VALID,94.9643,VALID,0,VALID,24.7761,VALID,77,VALID,0.303906,
2008-05-01, 00:41:04,VALID,1002.62,VALID,0,VALID,94.9872,VALID,0,VALID,24.778,VALID,72,VALID,0.495703,
2008-05-01, 00:42:04,VALID,1002.61,VALID,0,VALID,95.0253,VALID,0,VALID,24.778,VALID,53,VALID,0.276953,
2008-05-01, 00:43:04,VALID,1002.54,VALID,0,VALID,94.9567,VALID,0,VALID,24.7567,VALID,53,VALID,0.0269531,
2008-05-01, 00:44:04,VALID,1002.56,VALID,0,VALID,94.9185,VALID,0,VALID,24.7372,VALID,53,VALID,0.2125,
2008-05-01, 00:45:04,VALID,1002.53,VALID,0,VALID,94.8956,VALID,0,VALID,24.7372,VALID,53,VALID,0.00195313,
2008-05-01, 00:46:04,VALID,1002.55,VALID,0,VALID,94.9872,VALID,0,VALID,24.7372,VALID,59,VALID,0.639063,
2008-05-01, 00:47:04,VALID,1002.53,VALID,0,VALID,95.094,VALID,0,VALID,24.7567,VALID,60,VALID,0.367969,
2008-05-01, 00:48:04,VALID,1002.51,VALID,0,VALID,95.1093,VALID,0,VALID,24.7761,VALID,60,VALID,0.305078,
2008-05-01, 00:49:04,VALID,1002.5,VALID,0,VALID,95.1016,VALID,0,VALID,24.7761,VALID,60,VALID,0.155469,
2008-05-01, 00:50:04,VALID,1002.46,VALID,0,VALID,95.0787,VALID,0,VALID,24.7956,VALID,60,VALID,0.0835937,
2008-05-01, 00:51:04,VALID,1002.47,VALID,0,VALID,95.0787,VALID,0,VALID,24.7761,VALID,60,VALID,0,
2008-05-01, 00:52:04,VALID,1002.44,VALID,0,VALID,95.0482,VALID,0,VALID,24.817,VALID,60,VALID,0.361328,
2008-05-01, 00:53:04,VALID,1002.44,VALID,0,VALID,95.0177,VALID,0,VALID,24.7975,VALID,60,VALID,0.2375,
2008-05-01, 00:54:04,VALID,1002.38,VALID,0,VALID,94.9567,VALID,0,VALID,24.7567,VALID,60,VALID,0.201562,
2008-05-01, 00:55:04,VALID,1002.35,VALID,0,VALID,94.8956,VALID,0,VALID,24.7372,VALID,60,VALID,0.197266,
2008-05-01, 00:56:04,VALID,1002.31,VALID,0,VALID,94.9567,VALID,0,VALID,24.7177,VALID,60,VALID,0.192188,
2008-05-01, 00:57:04,VALID,1002.28,VALID,0,VALID,94.9414,VALID,0,VALID,24.7177,VALID,60,VALID,0,
2008-05-01, 00:58:04,VALID,1002.31,VALID,0,VALID,94.8804,VALID,0,VALID,24.7196,VALID,60,VALID,0.392969,
2008-05-01, 00:59:04,VALID,1002.26,VALID,0,VALID,94.9567,VALID,0,VALID,24.6983,VALID,60,VALID,0.046875,
2008-05-01, 01:00:04,VALID,1002.25,VALID,0,VALID,94.9948,VALID,0,VALID,24.6983,VALID,60,VALID,0.00585938,
2008-05-01, 01:01:04,VALID,1002.22,VALID,0,VALID,95.0177,VALID,0,VALID,24.7196,VALID,60,VALID,0,
2008-05-01, 01:02:04,VALID,1002.2,VALID,0,VALID,94.9948,VALID,0,VALID,24.6983,VALID,65,VALID,0.4125,
2008-05-01, 01:03:04,VALID,1002.21,VALID,0,VALID,95.0711,VALID,0,VALID,24.6964,VALID,64,VALID,0.364062,
2008-05-01, 01:04:04,VALID,1002.17,VALID,0,VALID,95.0787,VALID,0,VALID,24.6983,VALID,64,VALID,0,
2008-05-01, 01:05:04,VALID,1002.14,VALID,0,VALID,95.0253,VALID,0,VALID,24.6788,VALID,64,VALID,0,
2008-05-01, 01:06:04,VALID,1002.13,VALID,0,VALID,95.0711,VALID,0,VALID,24.6983,VALID,64,VALID,0,
2008-05-01, 01:07:04,VALID,1002.07,VALID,0,VALID,95.0253,VALID,0,VALID,24.6788,VALID,64,VALID,0,
2008-05-01, 01:08:04,VALID,1002.09,VALID,0,VALID,95.1321,VALID,0,VALID,24.6983,VALID,64,VALID,0,
2008-05-01, 01:09:04,VALID,1002.1,VALID,0,VALID,95.2084,VALID,0,VALID,24.6983,VALID,64,VALID,0,
2008-05-01, 01:10:04,VALID,1002.11,VALID,0,VALID,95.155,VALID,0,VALID,24.7177,VALID,64,VALID,0,
2008-05-01, 01:11:04,VALID,1002.08,VALID,0,VALID,95.1398,VALID,0,VALID,24.7177,VALID,64,VALID,0,
2008-05-01, 01:12:04,VALID,1002.12,VALID,0,VALID,95.2084,VALID,0,VALID,24.7372,VALID,65,VALID,0.299219,
2008-05-01, 01:13:04,VALID,1002.14,VALID,0,VALID,95.2237,VALID,0,VALID,24.7353,VALID,65,VALID,0.270703,
2008-05-01, 01:14:04,VALID,1002.16,VALID,0,VALID,95.2084,VALID,0,VALID,24.7761,VALID,65,VALID,0.285937,
2008-05-01, 01:15:04,VALID,1002.18,VALID,0,VALID,95.2084,VALID,0,VALID,24.7567,VALID,65,VALID,0.20625,
2008-05-01, 01:16:04,VALID,1002.18,VALID,0,VALID,95.1932,VALID,0,VALID,24.7761,VALID,65,VALID,0,
2008-05-01, 01:17:04,VALID,1002.15,VALID,0,VALID,95.1321,VALID,0,VALID,24.7567,VALID,65,VALID,0.0878906,
2008-05-01, 01:18:04,VALID,1002.15,VALID,0,VALID,95.1245,VALID,0,VALID,24.7567,VALID,65,VALID,0.111328,
2008-05-01, 01:19:04,VALID,1002.15,VALID,0,VALID,95.1093,VALID,0,VALID,24.7567,VALID,65,VALID,0,
2008-05-01, 01:20:04,VALID,1002.16,VALID,0,VALID,95.1093,VALID,0,VALID,24.7567,VALID,65,VALID,0,
2008-05-01, 01:21:04,VALID,1002.12,VALID,0,VALID,95.155,VALID,0,VALID,24.7761,VALID,64,VALID,0.367969,
2008-05-01, 01:22:04,VALID,1002.13,VALID,0,VALID,95.1474,VALID,0,VALID,24.7761,VALID,64,VALID,0,
2008-05-01, 01:23:04,VALID,1002.15,VALID,0,VALID,95.0864,VALID,0,VALID,24.7761,VALID,64,VALID,0,
2008-05-01, 01:24:04,VALID,1002.17,VALID,0,VALID,95.0787,VALID,0,VALID,24.7567,VALID,64,VALID,0,
2008-05-01, 01:25:04,VALID,1002.15,VALID,0,VALID,95.0787,VALID,0,VALID,24.7567,VALID,64,VALID,0,
2008-05-01, 01:26:04,VALID,1002.16,VALID,0,VALID,95.0864,VALID,0,VALID,24.7567,VALID,63,VALID,0,
2008-05-01, 01:27:04,VALID,1002.17,VALID,0,VALID,95.094,VALID,0,VALID,24.7372,VALID,63,VALID,0,
2008-05-01, 01:28:04,VALID,1002.16,VALID,0,VALID,95.0558,VALID,0,VALID,24.6964,VALID,63,VALID,0,
2008-05-01, 01:29:04,VALID,1002.19,VALID,0,VALID,94.9719,VALID,0,VALID,24.6983,VALID,63,VALID,0,
2008-05-01, 01:30:04,VALID,1002.18,VALID,0,VALID,94.9719,VALID,0,VALID,24.6788,VALID,63,VALID,0,
2008-05-01, 01:31:04,VALID,1002.17,VALID,0,VALID,95.0177,VALID,0,VALID,24.6593,VALID,63,VALID,0,
2008-05-01, 01:32:04,VALID,1002.19,VALID,0,VALID,94.9872,VALID,0,VALID,24.638,VALID,63,VALID,0,
2008-05-01, 01:33:04,VALID,1002.22,VALID,0,VALID,94.9796,VALID,0,VALID,24.6204,VALID,63,VALID,0,
2008-05-01, 01:34:04,VALID,1002.23,VALID,0,VALID,94.9719,VALID,0,VALID,24.6009,VALID,63,VALID,0,
2008-05-01, 01:35:04,VALID,1002.25,VALID,0,VALID,95.0177,VALID,0,VALID,24.6009,VALID,63,VALID,0,
2008-05-01, 01:36:04,VALID,1002.22,VALID,0,VALID,95.0635,VALID,0,VALID,24.5814,VALID,63,VALID,0,
2008-05-01, 01:37:04,VALID,1002.19,VALID,0,VALID,95.1321,VALID,0,VALID,24.5814,VALID,63,VALID,0,
2008-05-01, 01:38:04,VALID,1002.17,VALID,0,VALID,95.2008,VALID,0,VALID,24.5814,VALID,63,VALID,0,
2008-05-01, 01:39:04,VALID,1002.15,VALID,0,VALID,95.2847,VALID,0,VALID,24.6204,VALID,63,VALID,0,
2008-05-01, 01:40:04,VALID,1002.14,VALID,0,VALID,95.3839,VALID,0,VALID,24.6204,VALID,63,VALID,0,
2008-05-01, 01:41:04,VALID,1002.15,VALID,0,VALID,95.4297,VALID,0,VALID,24.6398,VALID,63,VALID,0,
2008-05-01, 01:42:04,VALID,1002.14,VALID,0,VALID,95.3839,VALID,0,VALID,24.6593,VALID,63,VALID,0,
2008-05-01, 01:43:04,VALID,1002.16,VALID,0,VALID,95.3457,VALID,0,VALID,24.6593,VALID,63,VALID,0,
2008-05-01, 01:44:04,VALID,1002.14,VALID,0,VALID,95.361,VALID,0,VALID,24.6593,VALID,55,VALID,0,
2008-05-01, 01:45:04,VALID,1002.2,VALID,0,VALID,95.3534,VALID,0,VALID,24.6593,VALID,55,VALID,0,
2008-05-01, 01:46:04,VALID,1002.18,VALID,0,VALID,95.3305,VALID,0,VALID,24.6593,VALID,55,VALID,0,
2008-05-01, 01:47:04,VALID,1002.19,VALID,0,VALID,95.3763,VALID,0,VALID,24.6593,VALID,55,VALID,0,
2008-05-01, 01:48:04,VALID,1002.27,VALID,0,VALID,95.3839,VALID,0,VALID,24.6593,VALID,55,VALID,0,
2008-05-01, 01:49:04,VALID,1002.27,VALID,0,VALID,95.3763,VALID,0,VALID,24.6807,VALID,55,VALID,0,
2008-05-01, 01:50:04,VALID,1002.28,VALID,0,VALID,95.3991,VALID,0,VALID,24.6983,VALID,55,VALID,0,
2008-05-01, 01:51:04,VALID,1002.33,VALID,0,VALID,95.422,VALID,0,VALID,24.7391,VALID,55,VALID,0,
2008-05-01, 01:52:04,VALID,1002.3,VALID,0,VALID,95.4144,VALID,0,VALID,24.7001,VALID,55,VALID,0,
2008-05-01, 01:53:04,VALID,1002.34,VALID,0,VALID,95.4373,VALID,0,VALID,24.6983,VALID,55,VALID,0,
2008-05-01, 01:54:04,VALID,1002.34,VALID,0,VALID,95.4373,VALID,0,VALID,24.6788,VALID,55,VALID,0,
2008-05-01, 01:55:04,VALID,1002.35,VALID,0,VALID,95.4373,VALID,0,VALID,24.6983,VALID,55,VALID,0,
2008-05-01, 01:56:04,VALID,1002.34,VALID,0,VALID,95.3915,VALID,0,VALID,24.6593,VALID,72,VALID,0.444141,
2008-05-01, 01:57:04,VALID,1002.36,VALID,0,VALID,95.3534,VALID,0.100563,VALID,24.6574,VALID,101,VALID,0.692187,
2008-05-01, 01:58:04,VALID,1002.51,VALID,0,VALID,95.5136,VALID,0.100563,VALID,24.6788,VALID,148,VALID,2.09336,
2008-05-01, 01:59:04,VALID,1002.54,VALID,0,VALID,95.5746,VALID,0.100563,VALID,24.6964,VALID,154,VALID,2.34531,
2008-05-01, 02:00:04,VALID,1002.49,VALID,0,VALID,95.5365,VALID,0.100563,VALID,24.6964,VALID,169,VALID,2.45703,
2008-05-01, 02:01:04,VALID,1002.38,VALID,0,VALID,94.7431,VALID,0.100563,VALID,24.7159,VALID,173,VALID,3.66797,
2008-05-01, 02:02:04,VALID,1002.26,VALID,0,VALID,92.195,VALID,0.100563,VALID,24.6769,VALID,180,VALID,5.00781,
2008-05-01, 02:03:04,VALID,1002.43,VALID,0,VALID,90.8295,VALID,0.100563,VALID,24.7353,VALID,157,VALID,6.41094,
2008-05-01, 02:04:04,VALID,1002.49,VALID,0,VALID,90.0589,VALID,0.100563,VALID,24.8911,VALID,116,VALID,4.63633,
2008-05-01, 02:05:04,VALID,1002.52,VALID,0,VALID,88.6323,VALID,0.100563,VALID,24.9106,VALID,105,VALID,3.71211,
2008-05-01, 02:06:04,VALID,1002.61,VALID,0,VALID,88.1365,VALID,0.100563,VALID,24.8716,VALID,116,VALID,4.06953,
2008-05-01, 02:07:04,VALID,1002.68,VALID,0,VALID,87.9534,VALID,0.100563,VALID,24.7548,VALID,109,VALID,6.49297,
2008-05-01, 02:08:04,VALID,1002.54,VALID,0,VALID,88.7697,VALID,0.100563,VALID,24.638,VALID,121,VALID,5.20508,
2008-05-01, 02:09:04,VALID,1002.6,VALID,0,VALID,89.441,VALID,0.100563,VALID,24.5406,VALID,108,VALID,3.34102,
2008-05-01, 02:10:04,VALID,1002.57,VALID,0,VALID,89.4715,VALID,0.100563,VALID,24.4628,VALID,94,VALID,4.22227,
2008-05-01, 02:11:04,VALID,1002.5,VALID,0,VALID,89.8911,VALID,0.100563,VALID,24.4043,VALID,100,VALID,2.88789,
2008-05-01, 02:12:04,VALID,1002.49,VALID,0,VALID,90.2268,VALID,0,VALID,24.3283,VALID,113,VALID,1.63125,
2008-05-01, 02:13:04,VALID,1002.4,VALID,0,VALID,90.6006,VALID,0,VALID,24.2504,VALID,113,VALID,4.45156,
2008-05-01, 02:14:04,VALID,1002.34,VALID,0,VALID,90.9591,VALID,0,VALID,24.2115,VALID,94,VALID,1.89492,
2008-05-01, 02:15:04,VALID,1002.38,VALID,0,VALID,91.4398,VALID,0,VALID,24.1336,VALID,109,VALID,1.51797,
2008-05-01, 02:16:04,VALID,1002.34,VALID,0,VALID,91.3177,VALID,0,VALID,24.0965,VALID,108,VALID,2.66367,
2008-05-01, 02:17:04,VALID,1002.33,VALID,0,VALID,91.2796,VALID,0,VALID,24.0557,VALID,84,VALID,2.66133,
2008-05-01, 02:18:04,VALID,1002.31,VALID,0.5,VALID,91.6686,VALID,0,VALID,23.9973,VALID,77,VALID,0.857031,
2008-05-01, 02:19:04,VALID,1002.29,VALID,0,VALID,91.2948,VALID,0,VALID,23.9389,VALID,91,VALID,2.29844,
2008-05-01, 02:20:04,VALID,1002.31,VALID,0,VALID,91.6457,VALID,0,VALID,23.9213,VALID,76,VALID,2.34336,
2008-05-01, 02:21:04,VALID,1002.32,VALID,0,VALID,91.9967,VALID,0,VALID,23.8824,VALID,118,VALID,1.85664,
2008-05-01, 02:22:04,VALID,1002.26,VALID,0,VALID,92.1874,VALID,0,VALID,23.8416,VALID,47,VALID,2.38711,
2008-05-01, 02:23:04,VALID,1002.29,VALID,0,VALID,91.7754,VALID,0,VALID,23.9,VALID,99,VALID,4.22813,
2008-05-01, 02:24:04,VALID,1002.22,VALID,0,VALID,91.9585,VALID,0,VALID,23.9584,VALID,95,VALID,0.86875,
2008-05-01, 02:25:04,VALID,1002.21,VALID,0,VALID,91.928,VALID,0,VALID,23.9389,VALID,124,VALID,1.40391,
2008-05-01, 02:26:04,VALID,1002.15,VALID,0,VALID,92.2179,VALID,0,VALID,23.9195,VALID,117,VALID,1.2207,
2008-05-01, 02:27:04,VALID,1002.18,VALID,0,VALID,92.4849,VALID,0,VALID,23.9,VALID,84,VALID,1.94687,
2008-05-01, 02:28:04,VALID,1002.16,VALID,0,VALID,92.6299,VALID,0,VALID,23.9,VALID,84,VALID,1.60938,
2008-05-01, 02:29:04,VALID,1002.13,VALID,0,VALID,92.7824,VALID,0,VALID,23.9195,VALID,103,VALID,1.44297,
2008-05-01, 02:30:04,VALID,1002.14,VALID,0,VALID,92.8587,VALID,0,VALID,23.9177,VALID,97,VALID,0.958984,
2008-05-01, 02:31:04,VALID,1002.13,VALID,0,VALID,92.2179,VALID,0,VALID,23.9195,VALID,95,VALID,2.52109,
2008-05-01, 02:32:04,VALID,1002.12,VALID,0,VALID,91.722,VALID,0,VALID,23.9584,VALID,129,VALID,3.24023,
2008-05-01, 02:33:04,VALID,1002.16,VALID,0,VALID,91.4855,VALID,0,VALID,24.0168,VALID,115,VALID,2.06523,
2008-05-01, 02:34:04,VALID,1002.09,VALID,0,VALID,90.7303,VALID,0,VALID,24.0363,VALID,133,VALID,3.22148,
2008-05-01, 02:35:04,VALID,1002.17,VALID,0,VALID,90.8905,VALID,0,VALID,24.0752,VALID,117,VALID,2.54375,
2008-05-01, 02:36:04,VALID,1002.17,VALID,0,VALID,90.9668,VALID,0,VALID,24.0752,VALID,122,VALID,1.33047,
2008-05-01, 02:37:04,VALID,1002.14,VALID,0,VALID,91.1804,VALID,0,VALID,24.077,VALID,102,VALID,1.17617,
2008-05-01, 02:38:04,VALID,1002.16,VALID,0,VALID,91.1651,VALID,0,VALID,24.0363,VALID,125,VALID,1.85312,
2008-05-01, 02:39:04,VALID,1002.15,VALID,0,VALID,90.7684,VALID,0,VALID,24.0752,VALID,95,VALID,2.03242,
2008-05-01, 02:40:04,VALID,1002.15,VALID,0,VALID,90.9286,VALID,0,VALID,24.0752,VALID,106,VALID,1.7125,
2008-05-01, 02:41:04,VALID,1002.15,VALID,0,VALID,91.0507,VALID,0,VALID,24.0557,VALID,101,VALID,0.559375,
2008-05-01, 02:42:04,VALID,1002.13,VALID,0.5,VALID,90.5167,VALID,0,VALID,24.0363,VALID,89,VALID,2.09063,
2008-05-01, 02:43:04,VALID,1002.08,VALID,0,VALID,90.593,VALID,0,VALID,24.015,VALID,110,VALID,0.915625,
2008-05-01, 02:44:04,VALID,1002.08,VALID,0,VALID,90.7455,VALID,0,VALID,24.0168,VALID,79,VALID,0.484375,
2008-05-01, 02:45:04,VALID,1002.09,VALID,0,VALID,90.6311,VALID,0,VALID,23.9992,VALID,99,VALID,0.358594,
2008-05-01, 02:46:04,VALID,1002.07,VALID,0,VALID,90.776,VALID,0,VALID,23.9584,VALID,101,VALID,0.416016,
2008-05-01, 02:47:04,VALID,1002.09,VALID,0,VALID,90.8676,VALID,0,VALID,23.9389,VALID,79,VALID,0.5375,
2008-05-01, 02:48:04,VALID,1002.08,VALID,0,VALID,90.8752,VALID,0,VALID,23.9602,VALID,112,VALID,1.27461,
2008-05-01, 02:49:04,VALID,1002.09,VALID,0,VALID,91.1422,VALID,0,VALID,23.9195,VALID,125,VALID,0.494141,
2008-05-01, 02:50:04,VALID,1002.1,VALID,0,VALID,91.3558,VALID,0,VALID,23.9,VALID,139,VALID,0.536328,
2008-05-01, 02:51:04,VALID,1002.14,VALID,0,VALID,91.5542,VALID,0,VALID,23.8805,VALID,139,VALID,0,
2008-05-01, 02:52:04,VALID,1002.15,VALID,0,VALID,91.7068,VALID,0,VALID,23.9018,VALID,139,VALID,0.285547,
2008-05-01, 02:53:04,VALID,1002.15,VALID,0,VALID,91.7983,VALID,0,VALID,23.8203,VALID,24,VALID,0.628906,
2008-05-01, 02:54:04,VALID,1002.15,VALID,0,VALID,91.928,VALID,0,VALID,23.8027,VALID,24,VALID,0.405469,
2008-05-01, 02:55:04,VALID,1002.13,VALID,0,VALID,91.9204,VALID,0,VALID,23.785,VALID,24,VALID,0.335938,
2008-05-01, 02:56:04,VALID,1002.09,VALID,0,VALID,91.8059,VALID,0,VALID,23.7248,VALID,2,VALID,0.762109,
2008-05-01, 02:57:04,VALID,1002.04,VALID,0,VALID,91.6152,VALID,0,VALID,23.7053,VALID,8,VALID,0.264453,
2008-05-01, 02:58:04,VALID,1002.03,VALID,0,VALID,91.5084,VALID,0.100563,VALID,23.7053,VALID,22,VALID,0.00546875,
2008-05-01, 02:59:04,VALID,1002.02,VALID,0,VALID,91.4245,VALID,0,VALID,23.7053,VALID,57,VALID,0.497656,
2008-05-01, 03:00:04,VALID,1002.04,VALID,0,VALID,91.867,VALID,0,VALID,23.7248,VALID,58,VALID,0.382031,
2008-05-01, 03:01:04,VALID,1001.98,VALID,0,VALID,92.1798,VALID,0,VALID,23.7053,VALID,80,VALID,0.449609,
2008-05-01, 03:02:04,VALID,1001.95,VALID,0,VALID,92.3476,VALID,0,VALID,23.6859,VALID,80,VALID,0.185937,
2008-05-01, 03:03:04,VALID,1001.9,VALID,0,VALID,92.4773,VALID,0,VALID,23.6664,VALID,80,VALID,0.230859,
2008-05-01, 03:04:04,VALID,1001.9,VALID,0,VALID,92.4239,VALID,0,VALID,23.6275,VALID,80,VALID,0.279687,
2008-05-01, 03:05:04,VALID,1001.89,VALID,0,VALID,92.6528,VALID,0.100563,VALID,23.5885,VALID,79,VALID,0.361719,
2008-05-01, 03:06:04,VALID,1001.88,VALID,0,VALID,92.9121,VALID,0.100563,VALID,23.5691,VALID,58,VALID,0.338672,
2008-05-01, 03:07:04,VALID,1001.91,VALID,0,VALID,93.1563,VALID,0,VALID,23.5496,VALID,13,VALID,0.614844,
2008-05-01, 03:08:04,VALID,1001.91,VALID,0,VALID,93.3012,VALID,0,VALID,23.5107,VALID,13,VALID,0.463281,
2008-05-01, 03:09:04,VALID,1001.91,VALID,0,VALID,93.4385,VALID,0,VALID,23.5107,VALID,13,VALID,0.395703,
2008-05-01, 03:10:04,VALID,1001.9,VALID,0,VALID,93.5453,VALID,0,VALID,23.493,VALID,12,VALID,0.438672,
2008-05-01, 03:11:04,VALID,1001.94,VALID,0,VALID,93.5682,VALID,0,VALID,23.4523,VALID,11,VALID,0.264844,
2008-05-01, 03:12:04,VALID,1001.97,VALID,0,VALID,93.5072,VALID,0,VALID,23.4523,VALID,21,VALID,0.664844,
2008-05-01, 03:13:04,VALID,1001.96,VALID,0,VALID,93.4462,VALID,0.100563,VALID,23.3939,VALID,21,VALID,0.519922,
2008-05-01, 03:14:04,VALID,1001.98,VALID,0,VALID,93.3699,VALID,0,VALID,23.3939,VALID,26,VALID,0.686719,
2008-05-01, 03:15:04,VALID,1001.98,VALID,0,VALID,93.4996,VALID,0,VALID,23.3939,VALID,34,VALID,0.477344,
2008-05-01, 03:16:04,VALID,1002.02,VALID,0,VALID,93.5682,VALID,0,VALID,23.3744,VALID,34,VALID,0,
2008-05-01, 03:17:04,VALID,1002.04,VALID,0,VALID,93.5377,VALID,0,VALID,23.3532,VALID,87,VALID,0.550391,
2008-05-01, 03:18:04,VALID,1002.05,VALID,0,VALID,93.5758,VALID,0.100563,VALID,23.3939,VALID,87,VALID,0.0523437,
2008-05-01, 03:19:04,VALID,1002.06,VALID,0,VALID,93.6216,VALID,0,VALID,23.3744,VALID,87,VALID,0.146094,
2008-05-01, 03:20:04,VALID,1002.09,VALID,0,VALID,93.8276,VALID,0,VALID,23.3744,VALID,91,VALID,0.494141,
2008-05-01, 03:21:04,VALID,1002.05,VALID,0,VALID,93.7055,VALID,0,VALID,23.3744,VALID,91,VALID,0.110937,
2008-05-01, 03:22:04,VALID,1002.05,VALID,0,VALID,93.7361,VALID,0,VALID,23.355,VALID,90,VALID,0,
2008-05-01, 03:23:04,VALID,1002.1,VALID,0,VALID,93.8657,VALID,0.100563,VALID,23.3744,VALID,76,VALID,0,
2008-05-01, 03:24:04,VALID,1002.1,VALID,0,VALID,93.9649,VALID,0,VALID,23.355,VALID,76,VALID,0.0992187,
2008-05-01, 03:25:04,VALID,1002.1,VALID,0,VALID,94.0717,VALID,0,VALID,23.355,VALID,76,VALID,0,
2008-05-01, 03:26:04,VALID,1002.09,VALID,0,VALID,94.0946,VALID,0,VALID,23.3355,VALID,76,VALID,0,
2008-05-01, 03:27:04,VALID,1002.05,VALID,0,VALID,94.2548,VALID,0,VALID,23.316,VALID,76,VALID,0,
2008-05-01, 03:28:04,VALID,1002.02,VALID,0,VALID,94.0412,VALID,0,VALID,23.316,VALID,46,VALID,0.0898438,
2008-05-01, 03:29:04,VALID,1002.02,VALID,0,VALID,94.0183,VALID,0,VALID,23.3355,VALID,35,VALID,0.363672,
2008-05-01, 03:30:04,VALID,1002.01,VALID,0,VALID,94.0336,VALID,0,VALID,23.3143,VALID,35,VALID,0.00585938,
2008-05-01, 03:31:04,VALID,1002.02,VALID,0,VALID,94.2014,VALID,0.100563,VALID,23.3744,VALID,35,VALID,0,
2008-05-01, 03:32:04,VALID,1002.03,VALID,0,VALID,94.2319,VALID,0,VALID,23.3939,VALID,35,VALID,0,
2008-05-01, 03:33:04,VALID,1002.04,VALID,0,VALID,94.1938,VALID,0,VALID,23.3744,VALID,35,VALID,0,
2008-05-01, 03:34:04,VALID,1002.04,VALID,0,VALID,94.2319,VALID,0,VALID,23.3939,VALID,35,VALID,0,
2008-05-01, 03:35:04,VALID,1002.04,VALID,0,VALID,94.293,VALID,0.100563,VALID,23.4134,VALID,35,VALID,0.521094,
2008-05-01, 03:36:04,VALID,1002.05,VALID,0,VALID,94.3769,VALID,0,VALID,23.3939,VALID,35,VALID,0.517969,
2008-05-01, 03:37:04,VALID,1002.05,VALID,0,VALID,94.3082,VALID,0,VALID,23.3744,VALID,35,VALID,0.590234,
2008-05-01, 03:38:04,VALID,1002.06,VALID,0,VALID,94.4532,VALID,0,VALID,23.355,VALID,35,VALID,0.34375,
2008-05-01, 03:39:04,VALID,1002.09,VALID,0,VALID,94.6363,VALID,0,VALID,23.3744,VALID,35,VALID,0.170312,
2008-05-01, 03:40:04,VALID,1002.13,VALID,0,VALID,94.6134,VALID,0,VALID,23.355,VALID,35,VALID,0,
2008-05-01, 03:41:04,VALID,1002.16,VALID,0,VALID,94.6363,VALID,0,VALID,23.3744,VALID,35,VALID,0.0644531,
2008-05-01, 03:42:04,VALID,1002.15,VALID,0,VALID,94.5218,VALID,0,VALID,23.355,VALID,29,VALID,0.397266,
2008-05-01, 03:43:04,VALID,1002.15,VALID,0,VALID,94.7125,VALID,0,VALID,23.355,VALID,28,VALID,0,
2008-05-01, 03:44:04,VALID,1002.16,VALID,0,VALID,94.8194,VALID,0,VALID,23.355,VALID,28,VALID,0,
2008-05-01, 03:45:04,VALID,1002.18,VALID,0,VALID,94.9567,VALID,0,VALID,23.3939,VALID,28,VALID,0.0523437,
2008-05-01, 03:46:04,VALID,1002.18,VALID,0,VALID,95.0101,VALID,0,VALID,23.3939,VALID,26,VALID,0.426562,
2008-05-01, 03:47:04,VALID,1002.21,VALID,0,VALID,95.0253,VALID,0,VALID,23.4134,VALID,7,VALID,0.683203,
2008-05-01, 03:48:04,VALID,1002.24,VALID,0,VALID,94.9567,VALID,0,VALID,23.4134,VALID,355,VALID,0.653906,
2008-05-01, 03:49:04,VALID,1002.23,VALID,0,VALID,94.9796,VALID,0,VALID,23.3939,VALID,360,VALID,0.70625,
2008-05-01, 03:50:04,VALID,1002.22,VALID,0,VALID,95.0101,VALID,0,VALID,23.3727,VALID,1,VALID,0.857031,